Showing default

OPS 6564 (VELA 6), 1459

Orbit data source: Space-Track

OPS 6564 (VELA 6), 1459 is a payload satellite owned by USAF SSD (US) in HEO that was launched on Tue, 20 Jul 1965 UTC via an ATLAS AGENA D launch vehicle from the Air Force Eastern Test Range (AFETR). Payload-class satellites include a variety of spacecraft equipped with specific instruments for various scientific and technological missions. These include communications satellites like Starlink; space stations such as the ISS; scientific satellites like the Hubble; Earth observation satellites from companies like Planet Labs, Umbra, and HawkEye 360; GPS; miniature CubeSats for education and research; and military/defense satellites.

Not visible in the next 10 days
Identifier
1459, 1965-058B
Orbit
HEO
Country
Flag of USUS
Related business
Manufacturer
TRW
Mission
Spacecraft
Bus & Motor
VELA, BE-3A
Mass
~224 kg wet, 132 kg dry
Launch date (UTC)
1965-07-20 (61 years ago)
Launch vehicle
ATLAS AGENA D
Launch site
Air Force Eastern Test Range (AFETR)
Object type
Payload
Rocket body
Debris
Shape & HBR
Unknown
Radar Cross Section
RCS unknown

Expand to show TLE details & history
Last TLE update: 1 month ago

TLE from 1 month ago
0 OPS 6564 (VELA 6)
1 01459U 65058B   26091.58132292 -.00001013  00000-0  00000-0 0  9999
2 01459  41.4000   2.0993 4843830  90.5920 359.7322  0.21385678  9086
Epoch: 2026-04-01T13:57Z
TLE epoch observation values (Epoch: 2026-04-01T13:57:06.300Z)
Latitude
41.48609°
Longitude
54.77644°
Altitude
55,823.334 km
Speed
3.073 km/s
True Right ascension
06h 15m 58s
True Declination
41° 27' 60"
Sunlit
Object was in daylight at epoch
Visualization orbit readout
Latitude
Unknown
Longitude
Unknown
Altitude
Unknown
Speed
Unknown
Apparent Right ascension
Unknown
Apparent Declination
Unknown
Sunlit
N/A
Visualization observer readout
Local Sidereal Time
05:38:02
Azimuth
Unknown
Elevation
Unknown
Doppler factor
Unknown
Orbital elements
Apogee altitude
168,956.116 km
Perigee altitude
54,526.173 km
Semi-major axis
118,119.281 km
Eccentricity
0.48438
Inclination
41.4°
RAAN
2.0993°
Arg. of periapsis
90.592°
True anomaly
359.11879°
Mean anomaly
359.7322°
Eccentric anomaly
359.48063°
Mean motion
0.05346 °/min
Orbital period
6,733.49 mins
BSTAR
0
Loading maneuver chart data...
Computing Atmospheric mass density...
Loading historical data...
Loading historical data...
Loading historical data...
Loading historical data...
Loading historical data...
Loading historical data...
Loading historical data...
Other satellites on launch #58 in the year 1965 (1965-07-20 UTC)

Documentation

Showing up to 5 results
|